User: anonymous   Login
Location: Hale Hill Observatory
(39.3806°N, 86.8431°W)
Time: 02:34:12
(UTC-04:00)
Language:

Cosmos 990 Rocket - Orbit

View from above orbital plane
View from above orbital plane
View from above satellite
View from above satellite

Ground track
Ground track

The orbit data is extracted from the following two-line orbital elements,

1 10677U 78019B   15109.73181541  .00000284  00000-0  98929-4 0  9997
2 10677 074.0374 319.8306 0016087 230.0798 129.8944 14.39841173948862
Epoch (UTC): 19 April 2015 17:33:48
Eccentricity: 0.0016087
inclination: 74.0374°
perigee height: 747 km
apogee height: 770 km
right ascension of ascending node: 319.8306°
argument of perigee: 230.0798°
revolutions per day: 14.39841173
mean anomaly at epoch: 129.8944°
orbit number at epoch: 94886

The dashed part of the orbit path shows where the satellite is in the earth's shadow,  

DLR